OPS 7684 DEB

Satellite information

Favourite Embed

Satellite Type and Status

DEBRISIN ORBIT

Key statistics

Satellite OPS 7684 DEB at a glance.

Uptime

20824

Days in orbit

Revolutions

≈ 12.6

Per day

Orbit

LEO

Low Earth Orbit

Inclination

80.2

Latest

Satellite identification and parameters

Extended collection of information and parameters for OPS 7684 DEB.

Object identification

Identified? True

Debris? True

Object name: OPS 7684 DEB

International designator: 1968-112C

Object number (NORAD): 3617

Object ID (CCSDS): 3617

Country: UNITED STATES OF AMERICA (US)

Current information (Y/N): Y

RCS size: SMALL

Orbital parameters

Period: 113.967 minutes

Inclination: 80.1829 deg

SMA: 7786.566 km

Apoapsis: 1442.971 km

Periapsis: 1373.89 km

RAAN: 215.8694 deg

Eccentricy: 0.00443593

Argument of periapsis: 227.2566 deg

Mean anomaly: 205.4184 deg

Mean motion: 12.63524967 rev/day

Mean motion (dot): 0.00000033 rev/day2

B* drag term: 0.00015145641 1/REarth

Two-line elements (TLE)

Creation date: Dec. 2, 2025, 11:04 a.m.

Reference frame: TEME

Reference center: EARTH

Epoch: Dec. 1, 2025, 4:30 p.m. UTC

TLE line 0: 0 OPS 7684 DEB

TLE line 1: 1 03617U 68112C 25335.68811228 .00000033 00000-0 15146-3 0 9995

TLE line 2: 2 03617 80.1829 215.8694 0044359 227.2566 205.4184 12.63524967626077

Live tracking on map

Real-time ground track for satellite OPS 7684 DEB.

In-orbit conjunctions

A list of the most updated potential collisions computed for object OPS 7684 DEB.

Target Orbit TCA Probability of collision Miss distance Type
COSMOS 2091 LEO 2024-10-04 16:05:20 0.0001048058 210.0 (m) PAYLOAD

Associated space launch

The KH-4A (Keyhole-4A) was the fifth optical reconnaissance satellite version in the Corona-program.

OPS 7684 DEB was lifted into orbit during the mission ‘Thorad SLV-2G Agena D | KH-4A 49’, on board a Thorad SLV-2G Agena D space rocket.

The launch took place on Dec. 12, 1968, 10:22 p.m. from Space Launch Complex 3W.

For more information about the launch, click the button.

Launch to space Thorad SLV-2G Agena D | KH-4A 49
Thorad SLV-2G Agena D | KH-4A 49

Agency: N/A

Status: Launch Successful

Launch date: Dec. 12, 1968, 10:22 p.m. UTC

Rocket: Thorad SLV-2G Agena D

Launch pad: Space Launch Complex 3W

Location: Vandenberg SFB, CA, USA

...

Latest news about this satellite

There are no fresh news available about this satellite. Check back as we update our databases every day.


Newsletter sign-up

Weekly statistics, charts and insights to help you stay on top of the space industry.